Home > Weather > Vellore > Past weeks

Flag for India Past Weather in Vellore, Tamil Nadu, India — Yesterday and Last 2 Weeks

Now
84 °F

Scattered clouds.


Feels Like: 88 °F
Forecast: 80 / 95 °F
Wind: 15 mph from Southwest

Location: Madras / Minambakkam

Current Time: Jul 2, 2016 at 7:47:29 AM

Latest Report: Jul 2, 2016 at 7:00 AM


Visibility: 4 mi

Pressure: 29.59 "Hg

Humidity: 62%

Dew Point: 70 °F

Location of VelloreLocation

Past Weather in Vellore — Graph

°F

Vellore Temperature Yesterday

Maximum temperature yesterday: 95 °F (at 1:30 PM)
Minimum temperature yesterday: 81 °F (at 4:00 AM)
Average temperature yesterday: 88 °F

High & Low Weather Summary for the Past Weeks

 TemperatureHumidityPressure
High95 °F (Jun 17, 12:00 PM)100% (Jun 27, 2:00 AM)29.68 "Hg (Jun 27, 2:00 AM)
Low75 °F (Jun 26, 3:00 AM)47% (Jun 17, 2:00 PM)29.50 "Hg (Jun 17, 4:00 PM)
Average85 °F71%29.61 "Hg
* Reported Jun 17 6:30 AM — Jul 2 6:30 AM, Vellore, Weather by CustomWeather, © 2016

Note: Actual official high and low records may vary slightly from our data, if they occured in-between our weather recording intervals... More about our weather records

Advertising

Vellore Weather History for the Previous 24 Hours

Scroll right to see more
 ConditionsComfort  
Time TempWeatherWind HumidityBarometerVisibility
6:30 AM
Sat, Jul 2
84 °FScattered clouds.14 mph62%29.59 "Hg4 mi
6:00 AM84 °FPassing clouds.13 mph62%29.59 "Hg4 mi
5:30 AM84 °FPassing clouds.12 mph62%29.59 "Hg4 mi
5:00 AM84 °FPassing clouds.13 mph62%29.56 "Hg4 mi
4:30 AM84 °FPassing clouds.13 mph62%29.56 "Hg4 mi
4:00 AM84 °FPassing clouds.10 mph62%29.56 "Hg4 mi
3:30 AM84 °FPassing clouds.10 mph62%29.56 "Hg4 mi
3:00 AM82 °FPassing clouds.7 mph70%29.56 "Hg4 mi
2:30 AM84 °FPassing clouds.9 mph62%29.56 "Hg4 mi
2:00 AM84 °FPassing clouds.9 mph62%29.59 "Hg4 mi
1:30 AM86 °FPassing clouds.9 mph59%29.59 "Hg4 mi
1:00 AM86 °FPassing clouds.14 mph59%29.59 "Hg4 mi
12:30 AM86 °FPassing clouds.12 mph59%29.62 "Hg4 mi
12:00 AM86 °FPassing clouds.12 mph59%29.62 "Hg4 mi
11:30 PM
Fri, Jul 1
88 °FPassing clouds.12 mph59%29.65 "Hg4 mi
11:00 PM88 °FPassing clouds.13 mph59%29.65 "Hg4 mi
10:30 PM88 °FPassing clouds.14 mph59%29.65 "Hg4 mi
10:00 PM88 °FPassing clouds.12 mph62%29.62 "Hg4 mi
9:30 PM90 °FPassing clouds.9 mph59%29.62 "Hg4 mi
9:00 PM90 °FPassing clouds.8 mph59%29.62 "Hg4 mi
8:30 PM90 °FPassing clouds.9 mph55%29.59 "Hg4 mi
8:00 PM91 °FPassing clouds.9 mph52%29.59 "Hg4 mi
7:30 PM91 °FPassing clouds.8 mph56%29.56 "Hg4 mi
7:00 PM93 °FScattered clouds.9 mph53%29.56 "Hg4 mi
6:30 PM93 °FScattered clouds.7 mph53%29.53 "Hg4 mi
6:00 PM93 °FScattered clouds.7 mph56%29.53 "Hg4 mi
5:30 PM93 °FScattered clouds.7 mph56%29.53 "Hg4 mi
5:00 PM93 °FPartly sunny.9 mph56%29.53 "Hg4 mi
4:30 PM95 °FPartly sunny.7 mph53%29.53 "Hg4 mi
4:00 PM95 °FPartly sunny.7 mph53%29.53 "Hg4 mi
3:30 PM95 °FPartly sunny.12 mph50%29.53 "Hg4 mi
3:00 PM95 °FBroken clouds.12 mph50%29.53 "Hg5 mi
2:30 PM95 °FScattered clouds.12 mph53%29.53 "Hg5 mi
2:00 PM95 °FScattered clouds.12 mph50%29.56 "Hg5 mi
1:30 PM95 °FScattered clouds.12 mph50%29.56 "HgN/A
1:00 PM93 °FScattered clouds.12 mph53%29.59 "Hg6 mi
12:30 PM91 °FScattered clouds.12 mph56%29.62 "Hg6 mi
12:00 PM91 °FScattered clouds.12 mph56%29.62 "Hg6 mi
11:30 AM91 °FScattered clouds.12 mph56%29.62 "Hg6 mi
11:00 AM90 °FScattered clouds.12 mph63%29.62 "Hg6 mi
10:30 AM90 °FScattered clouds.12 mph59%29.62 "Hg6 mi
10:00 AM90 °FScattered clouds.10 mph59%29.62 "Hg5 mi
9:30 AM88 °FScattered clouds.10 mph62%29.62 "Hg5 mi
9:00 AM88 °FScattered clouds.9 mph59%29.65 "Hg4 mi
8:30 AM86 °FBroken clouds.9 mph62%29.65 "Hg4 mi
8:00 AM84 °FBroken clouds.8 mph66%29.65 "Hg4 mi
7:30 AM82 °FBroken clouds.8 mph70%29.62 "Hg4 mi
7:00 AM82 °FBroken clouds.7 mph70%29.62 "Hg4 mi
Weather by CustomWeather, © 2016

See weather overviewHow to use our weather pages